FW1401 Weather Reports


time (UTC)temp
C
wind
direction
speed
KPH
gust
KPH
rain 1hr
cm
rain 24hr
cm
rain mn
cm
humidity
%
barometer
mb
20260502161529 18 319 4.8 17.7 0.00 0.00 0.00 39 1015.5
20260502151511 13 304 4.8 19.3 0.00 0.00 0.00 51 1016.8
20260502123031 5 249 8.0 16.1 0.00 0.00 0.00 66 1018.7
20260502121528 5 235 6.4 17.7 0.00 0.00 0.00 67 1018.8
20260502114524 4 252 11.3 19.3 0.00 0.00 0.00 68 1019.1
20260502113023 3 244 4.8 17.7 0.00 0.00 0.00 69 1019.2
20260502111520 3 308 4.8 12.9 0.00 0.00 0.00 70 1019.3
20260502110017 3 252 4.8 14.5 0.00 0.00 0.00 70 1019.4
20260502104515 3 263 4.8 11.3 0.00 0.00 0.00 69 1019.6
20260502103013 3 280 3.2 9.7 0.00 0.00 0.00 69 1019.8
20260502101514 3 286 3.2 11.3 0.00 0.00 0.00 69 1020.0
20260502091501 3 296 1.6 9.7 0.00 0.00 0.00 66 1020.8
20260502070052 4 296 0.0 3.2 0.00 0.00 0.00 56 1021.9
20260502064546 4 294 0.0 4.8 0.00 0.00 0.00 55 1022.2
20260502063042 4 291 0.0 3.2 0.00 0.00 0.00 56 1022.2
20260502061537 5 294 1.6 3.2 0.00 0.00 0.00 56 1022.2
20260502060036 5 302 0.0 1.6 0.00 0.00 0.00 57 1022.4
20260502054535 5 304 0.0 1.6 0.00 0.00 0.00 56 1022.4
20260502053032 5 304 0.0 1.6 0.00 0.00 0.00 55 1022.4
20260502051532 5 304 0.0 1.6 0.00 0.00 0.00 54 1022.5
20260502050035 5 304 0.0 1.6 0.00 0.00 0.00 54 1022.5
20260502044529 5 291 0.0 1.6 0.00 0.00 0.00 54 1022.6
20260502043029 5 298 0.0 0.0 0.00 0.00 0.00 53 1022.6
20260502041533 5 298 0.0 0.0 0.00 0.00 0.00 53 1022.7
20260502040027 6 297 0.0 0.0 0.00 0.00 0.00 52 1022.8
20260502034536 6 297 0.0 0.0 0.00 0.00 0.00 54 1022.8
20260502033027 6 286 0.0 3.2 0.00 0.00 0.00 56 1022.9
20260502031527 6 331 0.0 0.0 0.00 0.00 0.00 53 1022.8
20260502030026 6 332 0.0 0.0 0.00 0.00 0.00 47 1022.8
20260502024525 6 334 0.0 0.0 0.00 0.00 0.00 47 1022.8
20260502023025 7 357 0.0 0.0 0.00 0.00 0.00 44 1022.8
20260502021525 7 358 0.0 0.0 0.00 0.00 0.00 43 1022.8
20260502020024 8 3 0.0 0.0 0.00 0.00 0.00 41 1022.8
20260502014545 10 3 0.0 0.0 0.00 0.00 0.00 39 1022.8
20260502013023 11 335 0.0 1.6 0.00 0.00 0.00 37 1022.8
20260502011523 12 334 0.0 1.6 0.00 0.00 0.00 35 1022.9
20260502010022 12 342 0.0 3.2 0.00 0.00 0.00 34 1022.7
20260502004522 12 340 0.0 6.4 0.00 0.00 0.00 34 1022.7
20260502003022 12 344 0.0 8.0 0.00 0.00 0.00 33 1022.8
20260502001522 12 62 1.6 8.0 0.00 0.00 0.00 33 1022.8
20260502000039 13 329 0.0 8.0 0.00 0.00 0.00 31 1022.8
20260501234519 13 333 1.6 11.3 0.00 0.00 0.00 32 1022.9
20260501233019 13 306 3.2 8.0 0.00 0.00 0.00 32 1023.1
20260501231524 13 344 3.2 17.7 0.00 0.00 0.00 32 1023.2
20260501230020 12 298 3.2 8.0 0.00 0.00 0.00 32 1023.0
20260501224517 12 9 3.2 9.7 0.00 0.00 0.00 32 1023.1
20260501223016 13 343 4.8 22.5 0.00 0.00 0.00 33 1023.1
20260501221520 13 346 0.0 4.8 0.00 0.00 0.00 34 1023.2
20260501220014 12 321 0.0 16.1 0.00 0.00 0.00 33 1023.3
20260501214513 13 312 0.0 8.0 0.00 0.00 0.00 35 1023.4
20260501213009 12 328 4.8 14.5 0.00 0.00 0.00 37 1023.6
20260501211510 12 292 1.6 16.1 0.00 0.00 0.00 35 1023.6
20260501210006 12 317 3.2 14.5 0.00 0.00 0.00 35 1023.8
20260501204504 12 6 3.2 16.1 0.00 0.00 0.00 36 1024.0
20260501203003 12 338 0.0 16.1 0.00 0.00 0.00 39 1024.0
20260501201501 11 342 0.0 11.3 0.00 0.00 0.00 37 1024.3
20260501200100 11 357 3.2 11.3 0.00 0.00 0.00 39 1024.4
20260501194559 11 334 8.0 20.9 0.00 0.00 0.00 38 1024.6
20260501193101 11 331 1.6 14.5 0.00 0.00 0.00 42 1024.5
20260501191556 11 342 4.8 12.9 0.00 0.00 0.00 42 1024.7
20260501190054 10 324 3.2 11.3 0.00 0.00 0.00 42 1024.8
20260501184556 10 273 4.8 14.5 0.00 0.00 0.00 42 1024.9
20260501183055 10 323 3.2 16.1 0.00 0.00 0.00 43 1025.0
20260501181550 10 342 3.2 12.9 0.00 0.00 0.00 44 1025.1
20260501180048 9 323 1.6 8.0 0.00 0.00 0.00 46 1025.2
20260501174548 9 297 3.2 16.1 0.00 0.00 0.00 48 1025.3
20260501173044 9 348 1.6 8.0 0.00 0.00 0.00 49 1025.4
20260501171544 9 1 1.6 11.3 0.00 0.00 0.00 50 1025.6
20260501170048 8 357 1.6 9.7 0.00 0.00 0.00 49 1025.6
20260501164538 8 44 1.6 12.9 0.00 0.00 0.00 50 1025.8
20260501163039 7 306 4.8 14.5 0.00 0.00 0.00 52 1025.8